User: anonymous   Login
Location: Unspecified
(0.0000°N, 0.0000°E)
Time: 23:00:10
(UTC+00:00)
Language:

STARLINK-35386 - Orbit

View from above orbital plane
View from above orbital plane
View from above satellite
View from above satellite

Ground track
Ground track

The orbit is defined by the following mean orbital elements,

1 65862U          26145.58335647 +.00000000 +00000-0 -52488-3 0 00000
2 65862  53.1586 297.2333 0001261  92.6974 327.9952 15.34395239    04
Epoch (UTC): 25 May 2026 14:00:01
Eccentricity: 0.0001261
inclination: 53.1586°
perigee height: 462 km
apogee height: 464 km
right ascension of ascending node: 297.2333°
argument of perigee: 92.6974°
revolutions per day: 15.34395239
mean anomaly at epoch: 327.9952°

The dashed part of the orbit path shows where the satellite is in the earth's shadow,  

DLR